Time,TemperatureF,DewpointF,PressureIn,WindDirection,WindDirectionDegrees,WindSpeedMPH,WindSpeedGustMPH,Humidity,HourlyPrecipIn,Conditions,Clouds,dailyrainin,SoftwareType,DateUTC
2013-07-11 00:02:00,62.8,53.6,30.38,NE,45,0.0,0.0,72,0.00,CLR,FEW,0.00,WeatherDisplay:10.37,2013-07-10 23:02:00,
2013-07-11 00:30:00,62.6,53.4,30.38,NE,45,0.0,2.0,72,0.00,CLR,FEW,0.00,WeatherDisplay:10.37,2013-07-10 23:30:00,
2013-07-11 02:00:00,61.8,53.4,30.38,NE,45,0.0,0.0,74,0.00,CLR,FEW,0.00,WeatherDisplay:10.37,2013-07-11 01:00:00,
2013-07-11 02:30:00,61.5,53.2,30.38,North,10,0.0,4.0,74,0.00,CLR,FEW,0.00,WeatherDisplay:10.37,2013-07-11 01:30:00,
2013-07-11 03:00:00,61.9,53.5,30.38,WSW,248,0.0,0.0,74,0.00,CLR,FEW,0.00,WeatherDisplay:10.37,2013-07-11 02:00:00,
2013-07-11 03:30:00,61.9,53.5,30.37,NE,45,0.0,0.0,74,0.00,CLR,FEW,0.00,WeatherDisplay:10.37,2013-07-11 02:30:00,
2013-07-11 04:00:00,61.9,53.5,30.38,NE,45,0.0,0.0,74,0.00,CLR,FEW,0.00,WeatherDisplay:10.37,2013-07-11 03:00:00,
2013-07-11 05:00:00,60.8,52.8,30.37,NE,45,0.0,0.0,75,0.00,CLR,FEW,0.00,WeatherDisplay:10.37,2013-07-11 04:00:00,
2013-07-11 05:30:00,60.3,52.3,30.37,NE,45,0.0,0.0,75,0.00,CLR,FEW,0.00,WeatherDisplay:10.37,2013-07-11 04:30:00,
2013-07-11 06:00:00,60.3,52.3,30.37,NE,45,0.0,0.0,75,0.00,CLR,FEW,0.00,WeatherDisplay:10.37,2013-07-11 05:00:00,
2013-07-11 06:30:00,60.8,53.2,30.37,NE,45,0.0,0.0,76,0.00,CLR,FEW,0.00,WeatherDisplay:10.37,2013-07-11 05:30:00,
2013-07-11 07:00:00,61.9,54.2,30.38,NE,45,0.0,0.0,76,0.00,CLR,FEW,0.00,WeatherDisplay:10.37,2013-07-11 06:00:00,
2013-07-11 07:30:00,63.7,56.3,30.38,NE,45,0.0,0.0,77,0.00,CLR,FEW,0.00,WeatherDisplay:10.37,2013-07-11 06:30:00,
2013-07-11 08:00:00,65.5,58.1,30.38,NE,45,0.0,0.0,77,0.00,CLR,FEW,0.00,WeatherDisplay:10.37,2013-07-11 07:00:00,
2013-07-11 08:30:00,67.1,58.2,30.38,NE,45,0.0,1.0,73,0.00,CLR,FEW,0.00,WeatherDisplay:10.37,2013-07-11 07:30:00,
2013-07-11 09:00:00,68.7,58.1,30.38,NE,45,0.0,0.0,69,0.00,CLR,FEW,0.00,WeatherDisplay:10.37,2013-07-11 08:00:00,
2013-07-11 09:30:00,70.3,58.0,30.38,NE,45,0.0,0.0,65,0.00,CLR,FEW,0.00,WeatherDisplay:10.37,2013-07-11 08:30:00,
2013-07-11 10:00:00,70.9,56.8,30.39,NE,45,0.0,2.0,61,0.00,CLR,FEW,0.00,WeatherDisplay:10.37,2013-07-11 09:00:00,
2013-07-11 10:30:00,71.2,55.2,30.39,NE,45,0.0,1.0,57,0.00,CLR,FEW,0.00,WeatherDisplay:10.37,2013-07-11 09:30:00,
2013-07-11 11:00:00,71.1,54.1,30.39,WSW,248,0.0,1.0,55,0.00,CLR,FEW,0.00,WeatherDisplay:10.37,2013-07-11 10:00:00,
2013-07-11 11:30:00,71.3,53.8,30.39,NE,45,0.0,1.0,54,0.00,CLR,FEW,0.00,WeatherDisplay:10.37,2013-07-11 10:30:00,
2013-07-11 12:00:00,71.2,53.7,30.38,NE,45,0.0,1.0,54,0.00,CLR,FEW,0.00,WeatherDisplay:10.37,2013-07-11 11:00:00,
2013-07-11 12:30:00,72.0,53.4,30.39,NE,45,0.0,2.0,52,0.00,CLR,FEW,0.00,WeatherDisplay:10.37,2013-07-11 11:30:00,
2013-07-11 13:00:00,72.5,53.3,30.39,NE,45,0.0,1.0,51,0.00,CLR,FEW,0.00,WeatherDisplay:10.37,2013-07-11 12:00:00,
2013-07-11 13:30:00,73.4,51.9,30.38,NE,45,0.0,2.0,47,0.00,CLR,FEW,0.00,WeatherDisplay:10.37,2013-07-11 12:30:00,
2013-07-11 14:00:00,73.0,50.4,30.38,NE,45,0.0,6.0,45,0.00,CLR,FEW,0.00,WeatherDisplay:10.37,2013-07-11 13:00:00,
2013-07-11 15:00:00,73.6,50.3,30.38,NE,45,0.0,2.0,44,0.00,CLR,FEW,0.00,WeatherDisplay:10.37,2013-07-11 14:00:00,
2013-07-11 15:30:00,74.1,50.8,30.37,NE,45,0.0,1.0,44,0.00,CLR,FEW,0.00,WeatherDisplay:10.37,2013-07-11 14:30:00,
2013-07-11 16:30:00,75.0,51.0,30.36,NE,45,0.0,1.0,43,0.00,CLR,FEW,0.00,WeatherDisplay:10.37,2013-07-11 15:30:00,
2013-07-11 17:00:00,75.0,51.0,30.36,NE,45,0.0,1.0,43,0.00,CLR,FEW,0.00,WeatherDisplay:10.37,2013-07-11 16:00:00,
2013-07-11 17:30:00,74.0,51.3,30.35,NE,45,0.0,0.0,45,0.00,CLR,FEW,0.00,WeatherDisplay:10.37,2013-07-11 16:30:00,
2013-07-11 18:00:00,72.9,51.4,30.35,NE,45,0.0,0.0,47,0.00,CLR,FEW,0.00,WeatherDisplay:10.37,2013-07-11 17:00:00,
2013-07-11 18:30:00,73.2,51.2,30.35,NE,45,0.0,0.0,46,0.00,CLR,FEW,0.00,WeatherDisplay:10.37,2013-07-11 17:30:00,
2013-07-11 19:00:00,72.3,51.0,30.34,NE,45,0.0,0.0,47,0.00,CLR,FEW,0.00,WeatherDisplay:10.37,2013-07-11 18:00:00,
2013-07-11 19:30:00,70.0,50.5,30.34,NE,45,0.0,0.0,50,0.00,CLR,FEW,0.00,WeatherDisplay:10.37,2013-07-11 18:30:00,
2013-07-11 20:00:00,68.5,50.2,30.34,NE,45,0.0,0.0,52,0.00,CLR,FEW,0.00,WeatherDisplay:10.37,2013-07-11 19:00:00,
2013-07-11 20:30:00,67.6,50.4,30.34,NE,45,0.0,0.0,54,0.00,CLR,FEW,0.00,WeatherDisplay:10.37,2013-07-11 19:30:00,
2013-07-11 21:00:00,65.8,50.6,30.34,NE,45,0.0,0.0,58,0.00,CLR,FEW,0.00,WeatherDisplay:10.37,2013-07-11 20:00:00,
2013-07-11 21:30:00,64.2,50.5,30.34,NE,45,0.0,0.0,61,0.00,CLR,FEW,0.00,WeatherDisplay:10.37,2013-07-11 20:30:00,
2013-07-11 22:00:00,63.0,50.6,30.35,NE,45,0.0,0.0,64,0.00,CLR,FEW,0.00,WeatherDisplay:10.37,2013-07-11 21:00:00,
2013-07-11 22:30:00,62.2,50.7,30.35,NE,45,0.0,0.0,66,0.00,CLR,FEW,0.00,WeatherDisplay:10.37,2013-07-11 21:30:00,
2013-07-11 23:00:00,62.1,51.4,30.35,NE,45,0.0,0.0,68,0.00,CLR,FEW,0.00,WeatherDisplay:10.37,2013-07-11 22:00:00,
2013-07-11 23:30:00,61.7,51.4,30.34,NE,45,0.0,0.0,69,0.00,CLR,FEW,0.00,WeatherDisplay:10.37,2013-07-11 22:30:00,